Weather History for Whitefield, NH

Change the Weather History Date:

Sunday, October 14, 2012

  Actual Average Record
Temperature  
Mean Temperature 41 °F -  
Max Temperature 48 °F 54 °F 75 °F (2000)
Min Temperature 34 °F 29 °F 21 °F (2002)
Degree Days  
Heating Degree Days 24    
Moisture  
Dew Point 39 °F    
Average Humidity 90    
Maximum Humidity 96    
Minimum Humidity 70    
Precipitation  
Precipitation 0.11 in - - ()
Sea Level Pressure  
Sea Level Pressure 30.03 in    
Wind  
Wind Speed 1 mph (SSE)    
Max Wind Speed 6 mph    
Max Gust Speed -    
Visibility 8 miles    
Events Fog , Rain , Snow    
Averages and records for this station are not official NWS values.
T = Trace of Precipitation, MM = Missing Value Source: NWS Daily Summary

Daily Weather History Graph

Daily Weather History Graph

Search for Another Location

Airport:

Trip Planner

Search our weather history database for the weather conditions in past years. The results will help you decide how hot, cold, wet, or windy it might be!

Date:

Astronomy

Oct. 14, 2012 Rise Set
Actual Time 7:00 AM EDT 6:02 PM EDT
Civil Twilight 6:31 AM EDT 6:32 PM EDT
Nautical Twilight 5:57 AM EDT 7:05 PM EDT
Astronomical Twilight 5:23 AM EDT 7:39 PM EDT
Moon 5:55 AM EDT (10/14) 5:20 PM EDT (10/14)
Length of Visible Light 12h 00m
Length of Day
11h 02m
Waning Crescent, 1% of the Moon is Illuminated
Oct 14
Waning Crescent
Oct 15
New
Oct 21
First Quarter
Oct 29
Full
Nov 6
Last Quarter

Hourly Weather History & Observations

Time (EDT) Temp. Windchill Dew Point Humidity Pressure Visibility Wind Dir Wind Speed Gust Speed Precip Events Conditions
1:07 AM 39.2 °F 35.0 °F 30.2 °F 70% 30.25 in 9.0 mi SSW 5.8 mph - 0.00 in Rain Light Rain
1:52 AM 37.0 °F - 33.1 °F 86% 30.27 in 6.0 mi Calm Calm - 0.03 in Rain Light Rain
2:16 AM 35.6 °F - 32.0 °F 87% 30.22 in 5.0 mi Calm Calm - 0.02 in Snow Light Snow
2:52 AM 34.0 °F 29.8 °F 32.0 °F 92% 30.21 in 9.0 mi East 4.6 mph - 0.04 in Rain Light Rain
3:52 AM 35.1 °F - 33.1 °F 92% 30.15 in 10.0 mi Calm Calm - 0.01 in Rain Light Rain
4:52 AM 35.1 °F 31.0 °F 33.1 °F 92% 30.13 in 7.0 mi West 4.6 mph - 0.01 in Rain Light Rain
5:40 AM 35.6 °F - 33.8 °F 93% 30.07 in 6.0 mi Calm Calm - 0.00 in   Overcast
5:52 AM 36.0 °F - 34.0 °F 93% 30.12 in 7.0 mi Calm Calm - 0.00 in Rain Light Rain
6:52 AM 37.0 °F - 35.1 °F 93% 30.11 in 6.0 mi Calm Calm - 0.00 in Rain Light Rain
7:52 AM 37.0 °F - 35.1 °F 93% 30.10 in 10.0 mi Calm Calm - 0.01 in   Overcast
8:18 AM 37.4 °F - 35.6 °F 93% 30.07 in 10.0 mi Calm Calm - N/A   Overcast
8:26 AM 37.4 °F - 35.6 °F 93% 30.07 in 10.0 mi Calm Calm - N/A   Overcast
8:52 AM 37.9 °F - 36.0 °F 93% 30.10 in 10.0 mi Calm Calm - N/A   Overcast
9:52 AM 39.0 °F - 37.0 °F 93% 30.09 in 10.0 mi Calm Calm - N/A   Overcast
10:52 AM 41.0 °F - 37.9 °F 89% 30.07 in 10.0 mi Calm Calm - N/A   Overcast
11:52 AM 42.1 °F - 39.9 °F 92% 30.08 in 10.0 mi Calm Calm - N/A   Overcast
12:11 PM 42.8 °F - 39.2 °F 87% 30.04 in 10.0 mi Calm Calm - N/A   Overcast
12:44 PM 44.6 °F - 39.2 °F 81% 30.02 in 10.0 mi Calm Calm - N/A   Overcast
12:52 PM 44.1 °F - 39.9 °F 85% 30.05 in 10.0 mi Calm Calm - N/A   Overcast
1:52 PM 45.0 °F - 41.0 °F 86% 30.04 in 10.0 mi Calm Calm - N/A   Overcast
2:52 PM 46.0 °F - 42.1 °F 86% 30.01 in 10.0 mi Calm Calm - N/A   Overcast
4:19 PM 46.4 °F - 42.8 °F 87% 29.96 in 10.0 mi Calm Calm - 0.00 in   Overcast
4:52 PM 46.9 °F - 44.1 °F 90% 29.98 in 10.0 mi Calm Calm - 0.00 in Rain Light Rain
5:52 PM 46.9 °F - 44.1 °F 90% 29.99 in 10.0 mi Calm Calm - 0.01 in   Overcast
6:52 PM 46.9 °F - 45.0 °F 93% 29.97 in 10.0 mi Calm Calm - N/A   Overcast
7:52 PM 48.0 °F - 45.0 °F 89% 29.96 in 10.0 mi Calm Calm - N/A   Overcast
8:52 PM 46.9 °F - 45.0 °F 93% 29.94 in 10.0 mi Calm Calm - N/A   Scattered Clouds
9:02 PM 46.4 °F - 44.6 °F 93% 29.91 in 10.0 mi Calm Calm - N/A   Scattered Clouds
9:52 PM 46.0 °F - 44.1 °F 93% 29.91 in 6.0 mi Calm Calm - N/A   Clear
10:26 PM 44.6 °F 43.1 °F 42.8 °F 93% 29.87 in 2.5 mi SE 3.5 mph - N/A   Partly Cloudy
10:35 PM 44.6 °F - 42.8 °F 93% 29.88 in 3.0 mi Calm Calm - N/A   Mostly Cloudy
10:44 PM 44.6 °F - 42.8 °F 93% 29.88 in 1.8 mi Calm Calm - N/A   Mostly Cloudy
10:49 PM 44.6 °F - 42.8 °F 93% 29.88 in 0.8 mi Calm Calm - N/A   Mostly Cloudy
10:52 PM 45.0 °F - 43.0 °F 93% 29.91 in 0.8 mi Calm Calm - N/A   Overcast
11:52 PM 42.1 °F - 41.0 °F 96% 29.88 in 0.2 mi Calm Calm - N/A Fog Fog